Погода Ханты-Мансийск

Погода Ханты-Мансийск : погода сейчас, прогноз погоды и архив. Всё, что Вы хотите узнать о погоде Ханты-Мансийск!

Хотите узнать прогноз погоды Ханты-Мансийск? Тогда Вам сюда: Погода Ханты-Мансийск

Поиск расширенной информации на нашем сайте:

Полезная информация:

Другие новости

Новости СМИ2

Главная страница сайта

Новости сайта

03.07.2017

Напоминаем, что на нашем специализированном сайте Метеоцентр.Азия вы можете получить высокодетализированные автоматические прогнозы погоды по пунктам России, СНГ и мира в авиационном формате (включающие направление и скорость ветра, видимость, явления погоды, количество и форму облачности, нижнюю и верхнюю границу облачности).

Рекомендуем:

Погода Ханты-Мансийск - сегодня

Время (UTC), дата Ветер
(°,м/с) 
Видим.   Явления Облачность Т
(°С)
Тd
(°С)
f(%) Тe
(°С)
Pmin
(гПа)
dP
(гПа)
Po
(мм)
O2
(г/м3)
Тmin Tmax R s Состояние
почвы
21 18.05.19 тихо ()   10 км    ясно 
+1.8 +0.1 88 +2  997.9  -0.8  744  298           
00 19.05.19 280 (З) 10 км    8/8 1000 м 
[Cu hum]
+3.2 +1.9 91 +4  997.7  0.1  744  296           
03 19.05.19 120 (ЮВ) 10 км    10/10 600 м 
[Cu hum]
+6.3 +2.3 76 +7  997.7  744  293  +1.1        влажная 
06 19.05.19 330 (СЗ) 10 км    8/8 600 м 
[Sc diur, vesp]
+9.1 +0.1 53 +10  997.6  744  290           
09 19.05.19 160 (Ю) 10 км  {дождь}  8/8 1000 м кучево-дожд. 
[Cb cap]
+10.4 -0.6 46 +11  998.2  0.6  745  289           
12 19.05.19 020 (С) 10 км  {дождь}  8/8 1000 м кучево-дожд. 
[Cb cap]
+11.4 -4.2 33 +13  998.6  0.4  745  289           
15 19.05.19 210 (ЮЗ) 10 км    8/8 1000 м кучево-дожд. 
[Cb cap]
+9.9 +0.8 53 +11  998.5  0.1  745  289    +12.2  0.0     
18 19.05.19 320 (СЗ) 10 км    6/4 1500 м средняя 
[Sc|Ac cast]
+6.3 -0.9 60 +7  998.3  -0.3  745  293           
21 19.05.19 330 (СЗ) 10 км    8/8 600 м кучево-дожд. 
[Cb cap]
+5.2 -0.6 66 +5  997.4  -0.9  744  294           
00 20.05.19 320 (СЗ) 10 км    3/0 средняя 
[Ac cast]
+2.6 +0.2 84 +3  997.2  -0.3  744  297           
03 20.05.19 330 (СЗ) 10 км    4/0 средняя 
[Ac cast]
+8 +1.5 63 +8  997.4  0.3  744  291  +2.5        сухая 
06 20.05.19 270 (З) 10 км    8/8 600 м кучево-дожд. 
[Cb calv]
+10.1 +0.7 52 +10  997.9  0.5  744  289           
09 20.05.19 290 (З) 10 км    8/8 600 м 
[]
+10.2 +0.7 52 +9  999.5  1.6  746  289           
12 20.05.19 300 (СЗ) 10 км    9/9 600 м кучево-дожд. 
[Cb calv]
+8.7 -0.8 51 +8  1001  1.4  747  292           
15 20.05.19 310 (СЗ) 10 км    10/3 1000 м средняя 
[Sc diur, vesp|As op]
+6.6 -3.1 50 +6  1001.7  0.7  747  294    +10.6       
18 20.05.19 320 (СЗ) 10 км    6/0 средняя 
[Ac As]
+2.1 -0.7 82 +3  1002  0.3  747  299           
21 20.05.19 тихо ()   10 км    8/0 средняя 
[Ac As]
+1.5 -0.5 87 +2  1002.1  0.1  747  300           
00 21.05.19 330 (СЗ) 10 км    10/5 600 м средняя 
[Sc diur, vesp|As trans]
+3.2 +1 85 +4  1002.5  0.4  748  298           
03 21.05.19 360 (С) 10 км    10/6 600 м кучево-дожд., средняя 
[Cb cap|As op]
+3.6 +0.9 82 +4  1003.7  1.2  749  298  +1        сухая 
06 21.05.19 320 (СЗ) 10 км    10/10 600 м 
[Cu Sc]
+5.3 -0.2 68 +5  1004.9  1.2  750  296           
09 21.05.19 310 (СЗ) 10 км    10/10 600 м 
[Sc diur, vesp]
+7.2 -2.4 50 +6  1006  1.1  750  295           
12 21.05.19 330 (СЗ) 10 км    9/8 600 м средняя 
[Cu Sc|Ac As]
+6.4 -0.9 60 +5  1007.3  1.3  751  296           
15 21.05.19 330 (СЗ) 10 км    10/8 600 м средняя 
[Cu Sc|As op]
+5.5 -0.4 66 +5  1008  0.6  752  297    +7.6       
18 21.05.19 340 (С) 10 км    9/9 600 м кучево-дожд. 
[Cb calv]
+3.5 -0.5 75 +3  1008.7  0.6  752  299           
21 21.05.19 330 (СЗ) 10 км    1/1 600 м 
[Sc]
+0.2 -1.5 88 +1  1009  0.3  753  303           
Время (UTC), дата Ветер
(°,м/с) 
Видим.   Явления Облачность Т
(°С)
Тd
(°С)
f(%) Тe
(°С)
Pmin
(гПа)
dP
(гПа)
Po
(мм)
O2
(г/м3)
Тmin Tmax R s Состояние
почвы

Для получения пояснительной информации подведите курсор к названию столбца.

ПОГОДА Ханты-Мансийск - архив

Всё, что Вы хотите узнать о погоде Ханты-Мансийск - удобно и подробно!

Выберите нужную дату (начиная с 1 января 2018* года) и нажмите кнопку "Найти".
Будут отображены архивные сводки погоды по пункту Ханты-Мансийск, начиная с указанной даты.


Отображать данные в формате CSV (для использования в таблицах Excel)


Внимание! Наш архив погоды предназначен исключительно для личного некоммерческого использования в познавательных целях. Если Вам необходимы официальные справки о состоянии погоды (для производственных, юридических, коммерческих и т.п. целей), обращайтесь в органы Росгидромета.

*Примечание: данная дата относится к архиву по метеостанциям СССР (Россия, СНГ, Балтия).
Архив по метеостанциям Зарубежной Европы и Азии (кроме Китая) хранится 10 дней, по другим регионам земного шара (Китай, Африка, Америка, Австралия, Океания) - 1 день.

Ханты-Мансийск - район местоположения метеостанции


Название, широта, долгота, высота метеостанции:
Ханты-Мансийск 61°ш. 69°д. 46 м над ур. моря [Российская Федерация]

Дополнительная информация

В oтличие oт бoльшинства пoгoдных сайтoв мы публикуем пoдрoбную метеoинфoрмацию в детальнoм прoфессиoнальнoм фoрмате.

Характеристики температуры и влажнoсти вoздуха измеряются на высoте 2 м в тени вдали oт зданий и деревьев.
Скoрoсть ветра измеряется на высoте 10 м (на урoвне рoста челoвека скoрoсть ветра ниже в 1.5-2 раза). Если метеoстанция нахoдится в гoрoде или в лесу, тo скoрoсть ветра занижена на 2-4 м/с пo сравнению с oткрытым местoм. Скoрoсть ветра над акватoриями крупных рек и oзёр, а также на вершинах хoлмoв на 2-5 м/с выше, чем в oбычных услoвиях.
Атмoсфернoе давление в разных тoчках местнoсти мoжет значительнo oтличаться oт давления на метеoстанции, в зависимoсти oт услoвий рельефа (при пoдъёме на 10 м давление пoнижается примернo на 1 мм рт.ст.).